www.pogodaiklimat.ru

Погода и климат >> Архив погоды >> Норвегия >> Квитсёй


ПОГОДА в Квитсёй

  • Прогноз погоды в Квитсёй
  • Монитор погоды в Квитсёй

АРХИВ ПОГОДЫ в Квитсёй

Время (UTC), дата Ветер
(напр.,м/с)
 
Видим.   Явления Облачность Т
(С)
Тd
(С)
f
(%)
Тe
(С)
Тes
(С)
Комфортность P
(гПа)
Po
(гПа)
Тmin
(С)
Tmax
(С)
R
(мм)
R24
(мм)
S
(см)
22 15.04 н/о н/о +5.2 1032.2 1029.4
23 15.04 н/о н/о +4.6 1032.3 1029.4
00 16.04 н/о н/о +4.9 -27.9 7 1032.0 1029.2
01 16.04 н/о н/о +5.1 -27.7 7 1031.6 1028.8
02 16.04 н/о н/о +5.3 -27.6 7 1031.4 1028.5
03 16.04 н/о н/о +5.0 -27.8 7 1031.3 1028.5
04 16.04 н/о н/о +5.0 -27.8 7 1031.2 1028.4
05 16.04 н/о н/о +5.6 -27.4 7 1031.0 1028.2
06 16.04 н/о н/о +6.6 -26.6 7 1031.1 1028.3 +4.4 +7.0
07 16.04 н/о н/о +6.8 -26.5 7 1031.1 1028.3
08 16.04 н/о н/о +7.9 -25.7 7 1030.9 1028.1
09 16.04 н/о н/о +8.0 -25.6 7 1030.9 1028.1
10 16.04 н/о н/о +9.7 -24.3 7 1030.7 1027.9
11 16.04 н/о н/о +11.1 -23.3 7 1030.4 1027.6
12 16.04 н/о н/о +11.3 -23.1 7 1030.2 1027.4
13 16.04 н/о н/о +10.5 -23.7 7 1030.0 1027.3
14 16.04 н/о н/о +10.7 -23.6 7 1029.6 1026.8
15 16.04 н/о н/о +10.9 -23.4 7 1029.4 1026.7
16 16.04 н/о н/о +10.0 -24.1 7 1029.2 1026.4
17 16.04 н/о н/о +10.2 -23.9 7 1029.5 1026.7
18 16.04 н/о н/о +8.4 -25.3 7 1030.0 1027.2 +6.6 +11.3
19 16.04 н/о н/о +6.4 -26.8 7 1030.7 1027.9
20 16.04 н/о н/о +7.0 -26.3 7 1031.2 1028.4
21 16.04 н/о н/о +6.7 -26.5 7 1031.2 1028.4
22 16.04 н/о н/о +6.4 -26.8 7 1031.1 1028.3
23 16.04 н/о н/о +6.5 -26.7 7 1031.1 1028.3
00 17.04 н/о н/о +6.4 -26.8 7 1030.8 1028.0
01 17.04 н/о н/о +6.4 -26.8 7 1030.6 1027.8
02 17.04 н/о н/о +6.6 -26.6 7 1030.6 1027.8
03 17.04 н/о н/о +6.4 -26.8 7 1030.5 1027.7
04 17.04 н/о н/о +6.3 -26.8 7 1030.6 1027.8
05 17.04 н/о н/о +6.8 -26.5 7 1030.9 1028.1
06 17.04 н/о н/о +7.6 -25.9 7 1030.9 1028.1 +6.2 +8.3
07 17.04 н/о н/о +8.3 -25.4 7 1031.1 1028.3
08 17.04 н/о н/о +9.1 -24.8 7 1031.4 1028.6
09 17.04 н/о н/о +10.3 -23.9 7 1031.6 1028.8
10 17.04 н/о н/о +11.2 -23.2 7 1031.6 1028.9
11 17.04 н/о н/о +11.6 -22.9 7 1031.6 1028.8
12 17.04 н/о н/о +12.3 -22.4 7 1031.7 1029.0
13 17.04 н/о н/о +12.7 -22.1 7 1031.8 1029.1
14 17.04 н/о н/о +13.0 -21.9 7 1032.1 1029.3
15 17.04 н/о н/о +12.9 -22.0 7 1032.1 1029.4
16 17.04 н/о н/о +11.6 -22.9 7 1032.2 1029.4
17 17.04 н/о н/о +10.8 -23.5 7 1032.3 1029.5
18 17.04 н/о н/о +10.4 -23.8 7 1032.6 1029.8 +7.6 +13.5
19 17.04 н/о н/о +9.9 -24.2 7 1033.2 1030.4
20 17.04 н/о н/о +9.4 -24.5 7 1033.6 1030.9
21 17.04 н/о н/о +8.8 -25.0 7 1033.8 1031.0
22 17.04 н/о н/о +7.9 -25.7 7 1034.3 1031.5
23 17.04 н/о н/о +7.7 -25.8 7 1034.7 1031.9
00 18.04 н/о н/о +7.8 -25.7 7 1034.9 1032.1
01 18.04 н/о н/о +7.6 -25.9 7 1035.1 1032.3
02 18.04 н/о н/о +7.5 -26.0 7 1035.3 1032.5
03 18.04 н/о н/о +7.0 -26.3 7 1035.2 1032.4
04 18.04 н/о н/о +6.9 -26.4 7 1035.2 1032.4
05 18.04 н/о н/о +7.5 -26.0 7 1035.4 1032.6
06 18.04 н/о н/о +8.7 -25.1 7 1035.9 1033.1 +6.7 +10.4
07 18.04 н/о н/о +9.8 -24.2 7 1036.3 1033.5
08 18.04 н/о н/о +10.9 -23.4 7 1036.6 1033.8
09 18.04 н/о н/о +12.2 -22.5 7 1036.8 1034.1
10 18.04 н/о н/о +11.0 -23.4 7 1036.8 1034.1
11 18.04 н/о н/о +12.5 -22.2 7 1036.8 1034.0
12 18.04 н/о н/о +13.7 -21.4 7 1036.9 1034.2
13 18.04 н/о н/о +15.5 -20.0 7 1036.7 1034.0
14 18.04 н/о н/о +13.1 -21.8 7 1036.8 1034.0
15 18.04 н/о н/о +14.0 -21.1 7 1036.6 1033.8
16 18.04 н/о н/о +12.2 -22.5 7 1036.6 1033.8
17 18.04 н/о н/о +11.2 -23.2 7 1036.4 1033.6
18 18.04 н/о н/о +9.8 -24.2 7 1036.6 1033.8 +8.8 +15.9
19 18.04 н/о н/о +8.6 -25.1 7 1036.9 1034.1
20 18.04 н/о н/о +8.9 -24.9 7 1037.1 1034.3
21 18.04 н/о н/о +9.1 1037.3 1034.5
22 18.04 н/о н/о +9.1 1037.5 1034.7
23 18.04 н/о н/о +7.7 1037.9 1035.1
00 19.04 н/о н/о +7.2 -26.2 7 1037.7 1034.9
01 19.04 н/о н/о +7.1 -26.2 7 1037.5 1034.7
02 19.04 н/о н/о +7.8 -25.7 7 1037.4 1034.6
03 19.04 н/о н/о +8.1 -25.5 7 1037.5 1034.7
04 19.04 н/о н/о +7.9 -25.7 7 1037.5 1034.7
05 19.04 н/о н/о +8.1 -25.5 7 1037.7 1034.8
06 19.04 н/о н/о +9.0 -24.8 7 1037.9 1035.1 +6.9 +9.8
07 19.04 н/о н/о +9.5 -24.5 7 1038.2 1035.4
08 19.04 н/о н/о +10.1 -24.0 7 1038.5 1035.7
09 19.04 н/о н/о +11.7 -22.8 7 1038.4 1035.6
10 19.04 н/о н/о +12.3 -22.4 7 1038.1 1035.4
11 19.04 н/о н/о +14.1 -21.1 7 1037.7 1034.9
12 19.04 н/о н/о +13.9 -21.2 7 1037.6 1034.9
13 19.04 н/о н/о +15.4 -20.1 7 1037.2 1034.4
14 19.04 н/о н/о +14.5 -20.8 7 1036.8 1034.1
15 19.04 н/о н/о +13.8 -21.3 7 1036.4 1033.7
16 19.04 н/о н/о +12.7 -22.1 7 1036.3 1033.6
17 19.04 н/о н/о +11.4 -23.1 7 1036.2 1033.4
18 19.04 н/о н/о +9.6 -24.4 7 1036.3 1033.6 +8.7 +15.5
19 19.04 н/о н/о +8.5 -25.2 7 1036.4 1033.6
20 19.04 н/о н/о +8.5 -25.2 7 1036.3 1033.5
21 19.04 н/о н/о +9.2 1036.3 1033.5
22 19.04 н/о н/о +8.6 1036.5 1033.7
23 19.04 н/о н/о +8.5 1036.3 1033.5
00 20.04 н/о н/о +7.9 1035.8 1033.0
01 20.04 н/о н/о +7.9 -25.7 7 1035.4 1032.6
02 20.04 н/о н/о +7.5 -26.0 7 1035.5 1032.7
03 20.04 н/о н/о +7.3 -26.1 7 1035.2 1032.4
04 20.04 н/о н/о +7.4 -26.0 7 1035.1 1032.3
05 20.04 н/о н/о +6.8 -26.5 7 1034.6 1031.8
06 20.04 н/о н/о +8.2 -25.4 7 1034.6 1031.8 +6.7 +9.5
07 20.04 н/о н/о +9.3 -24.6 7 1034.7 1031.9
08 20.04 н/о н/о +11.7 -22.8 7 1034.7 1031.9
09 20.04 н/о н/о +11.4 -23.1 7 1034.3 1031.5
10 20.04 н/о н/о +12.7 -22.1 7 1033.8 1031.1
11 20.04 н/о н/о +12.9 -22.0 7 1034.0 1031.3
12 20.04 н/о н/о +12.5 -22.2 7 1033.8 1031.0
13 20.04 н/о н/о +11.4 -23.1 7 1033.1 1030.4
14 20.04 н/о н/о +10.5 -23.7 7 1032.6 1029.8
15 20.04 н/о н/о +11.5 -23.0 7 1031.8 1029.1
16 20.04 н/о н/о +10.7 -23.6 7 1031.5 1028.8
17 20.04 н/о н/о +10.4 -23.8 7 1031.0 1028.3
18 20.04 н/о н/о +9.3 -24.6 7 1030.9 1028.1 +8.2 +13.3
19 20.04 н/о н/о +7.6 -25.9 7 1030.8 1028.0
20 20.04 н/о н/о +7.7 1030.6 1027.8
21 20.04 н/о н/о +8.1 -25.5 7 1030.2 1027.4
22 20.04 н/о н/о +8.9 -24.9 7 1029.4 1026.7
23 20.04 н/о н/о +8.8 -25.0 7 1028.7 1025.9
00 21.04 н/о н/о +9.0 -24.8 7 1028.0 1025.2
01 21.04 н/о н/о +8.7 -25.1 7 1027.3 1024.5
02 21.04 н/о н/о +8.6 -25.1 7 1026.4 1023.6
03 21.04 н/о н/о +8.7 -25.1 7 1025.8 1023.0
04 21.04 н/о н/о +8.2 -25.4 7 1025.2 1022.4
05 21.04 н/о н/о +8.7 -25.1 7 1024.7 1021.9
06 21.04 н/о н/о +9.1 -24.8 7 1024.1 1021.3 +7.4 +9.2
07 21.04 н/о н/о +10.2 -23.9 7 1024.0 1021.2
08 21.04 н/о н/о +11.0 -23.4 7 1023.7 1020.9
09 21.04 н/о н/о +12.0 -22.6 7 1022.8 1020.1
10 21.04 н/о н/о +11.7 -22.8 7 1022.0 1019.3
11 21.04 н/о н/о +12.8 -22.0 7 1021.2 1018.5
12 21.04 н/о н/о +10.7 -23.6 7 1020.7 1018.0
13 21.04 н/о н/о +11.5 -23.0 7 1020.3 1017.6
14 21.04 н/о н/о +11.3 -23.1 7 1019.9 1017.2
15 21.04 н/о н/о +10.7 -23.6 7 1019.5 1016.7
16 21.04 н/о н/о +10.2 -23.9 7 1019.0 1016.3
17 21.04 н/о н/о +10.5 -23.7 7 1018.8 1016.0
18 21.04 н/о н/о +10.3 -23.9 7 1018.7 1015.9 +9.2 +12.8
19 21.04 н/о н/о +10.0 -24.1 7 1018.8 1016.1
20 21.04 н/о н/о +9.7 -24.3 7 1018.8 1016.0
21 21.04 н/о н/о +9.7 -24.3 7 1019.0 1016.2
22 21.04 н/о н/о +9.4 -24.5 7 1018.8 1016.1
23 21.04 н/о н/о +8.3 -25.4 7 1018.9 1016.1
00 22.04 н/о н/о +7.9 -25.7 7 1018.8 1016.0
01 22.04 н/о н/о +7.8 -25.7 7 1018.6 1015.9
02 22.04 н/о н/о +7.6 -25.9 7 1018.5 1015.7
03 22.04 н/о н/о +7.9 -25.7 7 1018.3 1015.6
04 22.04 н/о н/о +8.7 -25.1 7 1018.1 1015.4
05 22.04 н/о н/о +7.8 -25.7 7 1018.3 1015.6
06 22.04 н/о н/о +8.5 -25.2 7 1018.4 1015.7 +7.1 +10.3
07 22.04 н/о н/о +10.4 -23.8 7 1018.5 1015.8
08 22.04 н/о н/о +12.6 -22.2 7 1018.5 1015.8
09 22.04 н/о н/о +14.7 -20.6 7 1018.3 1015.6
10 22.04 н/о н/о +13.7 -21.4 7 1018.1 1015.4
11 22.04 н/о н/о +13.8 -21.3 7 1017.3 1014.6
12 22.04 н/о н/о +14.0 -21.1 7 1017.2 1014.5
13 22.04 н/о н/о +14.5 -20.8 7 1016.9 1014.2
14 22.04 н/о н/о +15.2 -20.3 7 1016.6 1013.9
15 22.04 н/о н/о +15.7 -19.9 7 1016.5 1013.8
16 22.04 н/о н/о +15.1 -20.3 7 1016.3 1013.6
17 22.04 н/о н/о +13.2 -21.7 7 1016.1 1013.4
18 22.04 н/о н/о +12.2 -22.5 7 1016.0 1013.3 +8.6 +15.8
19 22.04 н/о н/о +12.3 -22.4 7 1016.5 1013.8
20 22.04 н/о н/о +10.6 -23.7 7 1016.8 1014.1
21 22.04 н/о н/о +14.4 -20.8 7 1016.7 1014.0

 

Местоположение метеостанции Квитсёй (Норвегия): широта 59.07 долгота 5.42 высота над уровнем моря 21 м.

В архиве по умолчанию представлена погода в Квитсёй за последнюю неделю. Архивные данные за месяц целиком и за предыдущие месяцы, начиная с января 2011 года, Вы можете получить, выбрав интересующий диапазон дат из раскрывающегося списка и нажав кнопку "Ввод!".


*Определитесь, кто Вы:
робот инопланетянин человек

Внимание! Время в таблицах - всемирное. Для получения местного времени необходимо прибавить поправку, которая равна 1 ч.

Смотрите также архив погоды в соседних городах и на ближайших метеорологических станциях:

Погода в Ставангере (Норвегия) (22 км)
Погода в Ставангер аэропорту (Норвегия) (25 км)
Погода в Аэропорту Haugesund (Норвегия) (34 км)
Погода в Фистере (Норвегия) (37 км)
Погода в Сархейме (Норвегия) (37 км)
Погода на Лярватне (Норвегия) (40 км)
Погода на Маяке Utsira (Норвегия) (41 км)
Погода в Роваере (Норвегия) (45 км)
Погода на Маяке Obrestad (Норвегия) (47 км)
Погода в Недре Ватс (Норвегия) (50 км)

Пояснения к столбцам:

Ветер - указаны скорость ветра в м/с - средняя за 10 мин, порывы в срок и между сроками (в фигурных скобках) и направление, откуда дует ветер: С - северный, СВ - северо-восточный, В - восточный, ЮВ - юго-восточный, Ю - южный, ЮЗ - юго-западный, З - западный, СЗ - северо-западный.
Видимость - горизонтальная дальность видимости в метрах или километрах. При видимости от 1 до 10 км при отсутствии осадков обычно наблюдается дымка, при ухудшении видимости до 1 км и менее - туман. В сухую погоду видимость может ухудшаться дымом, пылью или мглою.
Явления - указаны атмосферные явления, наблюдавшиеся в срок или в последний час перед сроком; фигурными скобками обозначены явления, наблюдавшиеся между сроками (за 1-3 часа до срока); квадратными скобками обозначены град или гололедные отложения с указанием их диаметра в мм.
Облачность - указаны через наклонную черту общая и нижняя облачность в баллах и высота нижней границы облаков в метрах; квадратными скобками обозначены формы облаков: Ci - перистые, Cs - перисто-слоистые, Cc - перисто-кучевые, Ac - высококучевые, As - высокослоистые, Sc - слоисто-кучевые, Ns - слоисто-дождевые, Cu - кучевые, Cb - кучево-дождевые. Подробнее классификацию облаков см. в Атласе облаков (PDF).
T - Температура воздуха - температура, измеренная на высоте 2 м над землей.
Td - Температура точки росы - температура, при понижении до которой содержащийся в воздухе водяной пар достигнет насыщения.
f - Относительная влажность воздуха - влажноcть воздуха, измеренная на высоте 2 м над землей.
Te - Эффективная температура - температура, которую ощущает одетый по сезону человек в тени. Характеристика душности погоды. При расчете учитывается влияние влажности воздуха и скорости ветра на теплоощущения человека.
Tes - Эффективная температура на солнце - температура, которую ощущает человек, с поправкой на солнечный нагрев. Характеристика знойности погоды. Зависит от высоты солнца над горизонтом, облачности и скорости ветра. Ночью, в пасмурную погоду, а также при ветре 12 м/с и более поправка равна нулю.
P - Атмосферное давление - приведенное к уровню моря атмосферное давление.
Po - Атмосферное давление - измеренное на уровне метеостанции атмосферное давление.
Tmin - Минимальная температура - минимум температуры воздуха на высоте 2 м над землей.
Tmax - Максимальная температура - максимум температуры воздуха на высоте 2 м над землей.
R - Количество осадков - Количество выпавших осадков за период времени, мм. При наведении курсора мыши на число - период времени, за который выпало указанное количество осадков.
R24 - Количество осадков - Количество выпавших осадков за 24 часа, мм.
S - Снежный покров - Высота снежного покрова, см. При наведении курсора мыши на число - состояние снежного покрова и степень покрытия местности в баллах.